User: anonymous   Login
Location: Unspecified
(0.0000°N, 0.0000°E)
Time: 05:54:20
(UTC+00:00)
Language:

Explorer 7 - Orbit

View from above orbital plane
View from above orbital plane
View from above satellite
View from above satellite

Ground track
Ground track

The orbit data is extracted from the following two-line orbital elements,

1 00022U 59009A   14295.46673378  .00004951  00000-0  43113-3 0   605
2 00022 050.2860 051.4221 0153133 305.2055 053.4633 14.89922846916629
Epoch (UTC): 22 October 2014 11:12:05
Eccentricity: 0.0153133
inclination: 50.2860°
perigee height: 491 km
apogee height: 705 km
right ascension of ascending node: 51.4221°
argument of perigee: 305.2055°
revolutions per day: 14.89922846
mean anomaly at epoch: 53.4633°
orbit number at epoch: 91662

The dashed part of the orbit path shows where the satellite is in the earth's shadow,  

DLR